Skip Page Navigation
NASA JPL Caltech
NASA Logo - Jet Propulsion Laboratory + View the NASA Portal
+ Center for Near-Earth Object Studies
JPL Home Earth Solar System Stars & Galaxies Technology
JPL Solar System Dynamics
BODIES ORBITS EPHEMERIDES TOOLS PHYSICAL DATA DISCOVERY FAQ SITE MAP
IMPORTANT: The SSD Announcement email list is now available. Major changes are coming in the near future, including possible hostname and/or URL changes. To be notified of such changes, subscribe to this email list.

Please visit this page for more details.


JPL Small-Body Database Browser
Search: [ help ]  
49734 (1999 VR106)
Classification: Main-belt Asteroid          SPK-ID: 2049734
Ephemeris | Orbit Diagram | Orbital Elements | Mission Design | Physical Parameters | Discovery Circumstances | Close-Approach Data ]

[ show orbit diagram ]
Orbital Elements at Epoch 2458600.5 (2019-Apr-27.0) TDB
Reference: JPL 17 (heliocentric ecliptic J2000)
 Element Value Uncertainty (1-sigma)   Units 
e .1614873976582542 3.1612e-08  
a 2.254100318583832 6.726e-09 au
q 1.890091524075088 7.0579e-08 au
i .4175422955181274 4.7498e-06 deg
node 174.5271723942029 0.00050799 deg
peri 131.3341017471079 0.00050823 deg
M 1.600199198027236 1.5548e-05 deg
tp 2458595.005479031516
(2019-Apr-21.50547903)
5.3382e-05 TDB
period 1236.113323324238
3.38
5.5327e-06
1.515e-08
d
yr
n .2912354338450654 1.3035e-09 deg/d
Q 2.618109113092578 7.8122e-09 au
  Orbit Determination Parameters
   # obs. used (total)      819  
   data-arc span      7892 days (21.61 yr)  
   first obs. used      1998-04-22  
   last obs. used      2019-11-30  
   planetary ephem.      DE431  
   SB-pert. ephem.      SB431-N16  
   condition code      0  
   norm. resid. RMS      .56498  
   source      ORB  
   producer      Otto Matic  
   solution date      2019-Dec-14 04:23:38  

Additional Information
 Earth MOID = .874305 au 
 Jupiter MOID = 2.60605 au 
 T_jup = 3.607 
[ show covariance matrix ]

Ephemeris | Orbit Diagram | Orbital Elements | Mission Design | Physical Parameters | Discovery Circumstances | Close-Approach Data ]

Physical Parameter Table
Parameter Symbol Value Units Sigma Reference Notes
absolute magnitude H 16.3   n/a MPO502488  

49734 (1999 VR106)          Discovered 1999-Nov-09 by LINEAR at Socorro
Reference: 20021120/Numbers.arcLast Updated: 2004-04-19

[ show close-approach data ]
Ephemeris | Orbit Diagram | Orbital Elements | Mission Design | Physical Parameters | Discovery Circumstances | Close-Approach Data ]
ABOUT SSD CREDITS/AWARDS PRIVACY/COPYRIGHT GLOSSARY LINKS
FirstGov 2020-Jan-21 02:30 UT
(server date/time)  
NASA Home Page
Site Manager:   Ryan S. Park
Webmaster  Alan B. Chamberlin